Left ArrowRight Arrow

Hourly Observations for March 6, 2023

Temp ( °F °C ) Dew Point ( °F °C ) Humidity (%) Winds ( mph kmh ) Pressure ( in mb ) Visibility ( mi km ) Precip ( " mm )
12:53 am 00:53 Clear 44 6.7 34 1.1 67 67 Calm 30.13 1020 10 16 0.00 0.00
1:53 am 01:53 Clear 42 5.6 34 1.1 73 73 Calm 30.13 1020 10 16 0.00 0.00
2:53 am 02:53 Clear 41 5 34 1.1 76 76 Calm 30.11 1020 10 16 0.00 0.00
3:53 am 03:53 Clear 39 3.9 35 1.7 86 86 Calm 30.10 1019 10 16 0.00 0.00
4:53 am 04:53 Clear 41 5 35 1.7 79 79 Calm 30.10 1019 10 16 0.00 0.00
5:53 am 05:53 Clear 40 4.4 35 1.7 83 83 SSE 3 6 30.11 1020 10 16 0.00 0.00
6:53 am 06:53 Clear 41 5 34 1.1 76 76 Calm 30.12 1020 10 16 0.00 0.00
7:53 am 07:53 Sunny 42 5.6 37 2.8 82 82 Calm 30.12 1020 10 16 0.00 0.00
8:53 am 08:53 Sunny 50 10 39 3.9 66 66 Calm 30.12 1020 10 16 0.00 0.00
9:53 am 09:53 Sunny 60 15.6 39 3.9 46 46 VRB 5 7 30.09 1019 10 16 0.00 0.00
10:53 am 10:53 Sunny 66 18.9 41 5 40 40 SSW 9 15 30.08 1019 10 16 0.00 0.00
11:53 am 11:53 Sunny 69 20.6 42 5.6 37 37 S 13 20 30.06 1018 10 16 0.00 0.00
12:53 pm 12:53 Sunny 70 21.1 43 6.1 38 38 WSW 13 20 30.03 1017 10 16 0.00 0.00
1:53 pm 13:53 Sunny 71 21.7 43 6.1 36 36 SW 8 13 29.98 1015 10 16 0.00 0.00
2:53 pm 14:53 Sunny 71 21.7 42 5.6 35 35 SSW 9 15 29.95 1014 10 16 0.00 0.00
3:53 pm 15:53 Sunny 72 22.2 44 6.7 37 37 S 13 20 29.93 1014 10 16 0.00 0.00
4:53 pm 16:53 Sunny 73 22.8 45 7.2 37 37 SSW 15 24 29.89 1012 10 16 0.00 0.00
5:53 pm 17:53 Sunny 71 21.7 45 7.2 39 39 SSW 12 19 29.89 1012 10 16 0.00 0.00
6:53 pm 18:53 Clear 69 20.6 44 6.7 40 40 SSW 6 9 29.88 1012 10 16 0.00 0.00
7:53 pm 19:53 Clear 67 19.4 45 7.2 45 45 SSW 6 9 29.89 1012 10 16 0.00 0.00
8:53 pm 20:53 Clear 61 16.1 45 7.2 56 56 SW 5 7 29.90 1012 10 16 0.00 0.00
9:53 pm 21:53 Clear 61 16.1 42 5.6 50 50 SW 5 7 29.89 1012 10 16 0.00 0.00
10:53 pm 22:53 Clear 58 14.4 42 5.6 55 55 SW 3 6 29.89 1012 10 16 0.00 0.00
11:53 pm 23:53 Clear 57 13.9 42 5.6 57 57 Calm 29.90 1013 10 16 0.00 0.00

Powered by Vaisala Xweather